Simultaneous Nadir Overpasses (SNOs) Predictions

Prediction of SNOs between AQUA and METOP-A Satellite Orbit:

Table of predicted SNOs for the next 14.0 days since TLE Epoch: 5/17/2013
Index Date (AQUA) Time (AQUA) Lat,Lon (AQUA) SZA (AQUA ) Date (METOP-A) Time (METOP-A) Lat,Lon (METOP-A) SZA (METOP-A ) Distance(km) Time Diff (sec)
1 05/19/2013 02:38:56 73.89, 134.52 54.09 05/19/2013 02:38:18 73.87, 134.47 54.08 2.89 38
2 05/19/2013 03:28:23 -73.96, -57.99 125.84 05/19/2013 03:28:57 -73.98, -57.93 125.83 2.54 34
3 05/21/2013 22:13:12 73.89,-159.04 53.51 05/21/2013 22:12:39 73.87,-159.11 53.50 2.74 33
4 05/21/2013 23:02:39 -73.95, 8.45 126.43 05/21/2013 23:03:19 -73.94, 8.37 126.45 3.24 40
5 05/24/2013 17:47:29 73.92, -92.69 53.01 05/24/2013 17:47:00 73.92, -92.59 53.01 3.13 29
6 05/24/2013 18:36:56 -73.99, 74.81 126.93 05/24/2013 18:37:40 -73.98, 74.90 126.94 2.72 44
7 05/27/2013 12:32:03 -73.17, 167.70 128.26 05/27/2013 12:30:58 -73.10, 164.62 128.22 99.58 65
8 05/27/2013 13:21:44 73.89, -26.19 52.50 05/27/2013 13:21:22 73.90, -26.21 52.51 0.97 22
9 05/27/2013 14:11:11 -73.95, 141.32 127.45 05/27/2013 14:12:02 -73.97, 141.29 127.43 2.42 51
10 05/30/2013 08:06:22 -73.44,-126.42 128.41 05/30/2013 08:05:13 -73.38,-128.34 128.40 61.30 69
11 05/30/2013 08:55:58 73.90, 40.22 52.08 05/30/2013 08:55:42 73.93, 40.27 52.10 2.93 16
12 05/30/2013 09:45:25 -73.96,-152.26 127.87 05/30/2013 09:46:23 -73.95,-152.34 127.88 2.32 58




NCC Satellite Simultaneous Nadir Overpasses (SNOs) Prediction Service
